Location: Newark
(15.4608°S, 41.1635°W)
Time: 23:15:54
(UTC+00:00)

Vanguard 3 - Pass Details

Date: 30 July 2021
Orbit: 510 x 3260 km, 33.3° (Epoch: 20 September)

Event Time Altitude Azimuth Distance (km) Brightness Sun altitude
Rises 17:58:30 0° 268° (W) 3,828 11.3 32.8°
Reaches altitude 10° 18:01:23 10° 283° (WNW) 3,206 11.4 32.2°
Maximum altitude 18:07:49 24° 334° (NNW) 2,971 11.3 31.0°
Drops below altitude 10° 18:17:23 10° 21° (NNE) 4,911 11.3 29.0°
Sets 18:23:20 0° 32° (NNE) 6,409 11.7 27.8°
